This is the latest recevied weather packets stored in our database for station/object VK3MAK-1. If no packets are shown the sender has not sent any weather packets the latest 10 day(s).
| Time | Temp. | Humidity | Pressure | Rain* | Wind** | Luminosity | Snow |
|---|---|---|---|---|---|---|---|
| 1777855803 | 15° C | 77% | 1007.8 hPa | 0 mm | 7.15 m/s, 0° | - | - |
| 1777855204 | 15° C | 77% | 1007.8 hPa | 0 mm | 7.15 m/s, 0° | - | - |
| 1777854604 | 14.44° C | 82% | 1007.9 hPa | 0 mm | 7.15 m/s, 0° | - | - |
| 1777854004 | 14.44° C | 82% | 1007.9 hPa | 0 mm | 7.15 m/s, 0° | - | - |
| 1777853404 | 14.44° C | 82% | 1007.9 hPa | 0 mm | 7.15 m/s, 0° | - | - |
| 1777852804 | 14.44° C | 83% | 1007.9 hPa | 0 mm | 5.81 m/s, 0° | - | - |
| 1777852203 | 14.44° C | 83% | 1007.9 hPa | 0 mm | 5.81 m/s, 0° | - | - |
| 1777851604 | 14.44° C | 83% | 1007.9 hPa | 0 mm | 5.81 m/s, 0° | - | - |
| 1777851004 | 12.78° C | 86% | 1008.1 hPa | 0 mm | 6.26 m/s, 0° | - | - |
| 1777850404 | 12.78° C | 86% | 1008.1 hPa | 0 mm | 6.26 m/s, 0° | - | - |
| 1777849803 | 12.78° C | 86% | 1008.1 hPa | 0 mm | 6.26 m/s, 0° | - | - |
| 1777849204 | 12.22° C | 89% | 1007.9 hPa | 0 mm | 4.92 m/s, 0° | - | - |
| 1777848603 | 12.22° C | 89% | 1007.9 hPa | 0 mm | 4.92 m/s, 0° | - | - |
| 1777848005 | 12.22° C | 89% | 1007.9 hPa | 0 mm | 4.92 m/s, 0° | - | - |
| 1777847403 | 11.67° C | 90% | 1007.7 hPa | 0 mm | 4.02 m/s, 0° | - | - |
| 1777846803 | 11.67° C | 90% | 1007.7 hPa | 0 mm | 4.02 m/s, 0° | - | - |
| 1777846203 | 11.67° C | 90% | 1007.7 hPa | 0 mm | 4.02 m/s, 0° | - | - |
| 1777845604 | 11.11° C | 92% | 1007.5 hPa | 0 mm | 4.02 m/s, 23° | - | - |
| 1777845003 | 11.11° C | 92% | 1007.5 hPa | 0 mm | 4.02 m/s, 23° | - | - |
| 1777844403 | 11.11° C | 92% | 1007.5 hPa | 0 mm | 4.02 m/s, 23° | - | - |
| 1777843803 | 11.11° C | 89% | 1007.6 hPa | 0 mm | 4.02 m/s, 23° | - | - |
| 1777843203 | 11.11° C | 89% | 1007.6 hPa | 0 mm | 4.02 m/s, 23° | - | - |
| 1777842603 | 11.11° C | 89% | 1007.6 hPa | 0 mm | 4.02 m/s, 23° | - | - |
| 1777842004 | 11.11° C | 86% | 1007.6 hPa | 0 mm | 4.92 m/s, 0° | - | - |
| 1777841403 | 11.11° C | 86% | 1007.6 hPa | 0 mm | 4.92 m/s, 0° | - | - |
* Rain latest hour (hover to see other rain measurements)
** Current wind speed in m/s (hover to see current wind gust speed)